| time (UTC) | temp F | wind direction | speed MPH | gust MPH | rain 1hr in | rain 24hr in | rain mn in | humidity % | barometer mb |
| 20260509150052 | 64 | 121 | 0.0 | 5.0 | 0.00 | 0.00 | 0.00 | 26 | 1021.3 |
| 20260509144553 | 64 | 194 | 0.0 | 3.0 | 0.00 | 0.00 | 0.00 | 24 | 1021.5 |
| 20260509143051 | 64 | 128 | 0.0 | 5.0 | 0.00 | 0.00 | 0.00 | 26 | 1021.5 |
| 20260509141551 | 64 | 132 | 1.0 | 8.0 | 0.00 | 0.00 | 0.00 | 26 | 1021.6 |
| 20260509140048 | 65 | 205 | 0.0 | 4.0 | 0.00 | 0.00 | 0.00 | 26 | 1021.8 |
| 20260509134555 | 64 | 79 | 0.0 | 4.0 | 0.00 | 0.00 | 0.00 | 26 | 1022.0 |
| 20260509133044 | 64 | 108 | 0.0 | 6.0 | 0.00 | 0.00 | 0.00 | 28 | 1022.1 |
| 20260509131558 | 64 | 176 | 1.0 | 6.0 | 0.00 | 0.00 | 0.00 | 26 | 1022.4 |
| 20260509130050 | 62 | 139 | 0.0 | 4.0 | 0.00 | 0.00 | 0.00 | 31 | 1022.6 |
| 20260509124542 | 63 | 355 | 0.0 | 6.0 | 0.00 | 0.00 | 0.00 | 30 | 1022.9 |
| 20260509123035 | 63 | 126 | 0.0 | 2.0 | 0.00 | 0.00 | 0.00 | 27 | 1023.1 |
| 20260509121531 | 63 | 106 | 0.0 | 1.0 | 0.00 | 0.00 | 0.00 | 29 | 1023.1 |
| 20260509120033 | 64 | 201 | 0.0 | 3.0 | 0.00 | 0.00 | 0.00 | 28 | 1023.2 |
| 20260509114529 | 62 | 156 | 0.0 | 3.0 | 0.00 | 0.00 | 0.00 | 31 | 1023.4 |
| 20260509113028 | 62 | 136 | 0.0 | 1.0 | 0.00 | 0.00 | 0.00 | 28 | 1023.7 |
| 20260509111526 | 61 | 311 | 0.0 | 1.0 | 0.00 | 0.00 | 0.00 | 31 | 1023.9 |
| 20260509110026 | 63 | 316 | 0.0 | 0.0 | 0.00 | 0.00 | 0.00 | 30 | 1024.1 |
| 20260509104522 | 61 | 69 | 0.0 | 1.0 | 0.00 | 0.00 | 0.00 | 29 | 1024.2 |
| 20260509103025 | 60 | 352 | 0.0 | 1.0 | 0.00 | 0.00 | 0.00 | 35 | 1024.4 |
| 20260509101523 | 61 | 201 | 0.0 | 1.0 | 0.00 | 0.00 | 0.00 | 33 | 1024.6 |
| 20260509100020 | 60 | 77 | 0.0 | 1.0 | 0.00 | 0.00 | 0.00 | 35 | 1024.7 |
| 20260509094517 | 61 | 214 | 0.0 | 2.0 | 0.00 | 0.00 | 0.00 | 31 | 1024.8 |
| 20260509093021 | 60 | 166 | 0.0 | 1.0 | 0.00 | 0.00 | 0.00 | 31 | 1024.9 |
| 20260509091514 | 59 | 27 | 0.0 | 1.0 | 0.00 | 0.00 | 0.00 | 33 | 1025.0 |
| 20260509090016 | 59 | 82 | 0.0 | 1.0 | 0.00 | 0.00 | 0.00 | 32 | 1025.2 |
| 20260509084516 | 59 | 167 | 0.0 | 2.0 | 0.00 | 0.00 | 0.00 | 34 | 1025.2 |
| 20260509083015 | 58 | 188 | 0.0 | 1.0 | 0.00 | 0.00 | 0.00 | 39 | 1025.3 |
| 20260509081526 | 57 | 102 | 0.0 | 0.0 | 0.00 | 0.00 | 0.00 | 40 | 1025.4 |
| 20260509080012 | 54 | 200 | 0.0 | 1.0 | 0.00 | 0.00 | 0.00 | 48 | 1025.6 |
| 20260509074511 | 53 | 229 | 0.0 | 1.0 | 0.00 | 0.00 | 0.00 | 53 | 1025.7 |
| 20260509073011 | 51 | 349 | 0.0 | 0.0 | 0.00 | 0.00 | 0.00 | 64 | 1025.8 |
| 20260509071512 | 52 | 46 | 0.0 | 1.0 | 0.00 | 0.00 | 0.00 | 63 | 1025.8 |
| 20260509070009 | 50 | 12 | 0.0 | 0.0 | 0.00 | 0.00 | 0.00 | 62 | 1026.0 |
| 20260509064509 | 50 | 359 | 0.0 | 0.0 | 0.00 | 0.00 | 0.00 | 63 | 1026.1 |
| 20260509063008 | 51 | 57 | 0.0 | 0.0 | 0.00 | 0.00 | 0.00 | 63 | 1026.3 |
| 20260509061507 | 49 | 77 | 0.0 | 0.0 | 0.00 | 0.00 | 0.00 | 68 | 1026.3 |
| 20260509060012 | 47 | 340 | 0.0 | 0.0 | 0.00 | 0.00 | 0.00 | 68 | 1026.4 |
| 20260509054522 | 47 | 347 | 0.0 | 0.0 | 0.00 | 0.00 | 0.00 | 72 | 1026.5 |
| 20260509053018 | 45 | 25 | 0.0 | 0.0 | 0.00 | 0.00 | 0.00 | 62 | 1026.4 |
| 20260509051516 | 44 | 48 | 0.0 | 0.0 | 0.00 | 0.00 | 0.00 | 65 | 1026.6 |
| 20260509050025 | 44 | 49 | 0.0 | 0.0 | 0.00 | 0.00 | 0.00 | 71 | 1026.4 |
| 20260509044514 | 45 | 129 | 0.0 | 0.0 | 0.00 | 0.00 | 0.00 | 69 | 1026.6 |
| 20260509043006 | 45 | 129 | 0.0 | 0.0 | 0.00 | 0.00 | 0.00 | 71 | 1026.6 |
| 20260509041506 | 44 | 129 | 0.0 | 0.0 | 0.00 | 0.00 | 0.00 | 76 | 1026.4 |
| 20260509040005 | 39 | 129 | 0.0 | 0.0 | 0.00 | 0.00 | 0.00 | 85 | 1026.6 |
| 20260509034502 | 34 | 129 | 0.0 | 0.0 | 0.00 | 0.00 | 0.00 | 86 | 1026.6 |
| 20260509033002 | 34 | 129 | 0.0 | 0.0 | 0.00 | 0.00 | 0.00 | 85 | 1026.7 |
| 20260509031501 | 35 | 129 | 0.0 | 0.0 | 0.00 | 0.00 | 0.00 | 84 | 1026.8 |
| 20260509030110 | 36 | 130 | 0.0 | 0.0 | 0.00 | 0.00 | 0.00 | 82 | 1026.8 |
| 20260509024559 | 36 | 129 | 0.0 | 0.0 | 0.00 | 0.00 | 0.00 | 82 | 1026.8 |
| 20260509023057 | 36 | 141 | 0.0 | 0.0 | 0.00 | 0.00 | 0.00 | 79 | 1026.7 |
| 20260509021559 | 37 | 142 | 0.0 | 0.0 | 0.00 | 0.00 | 0.00 | 75 | 1027.0 |
| 20260509020001 | 37 | 142 | 0.0 | 0.0 | 0.00 | 0.00 | 0.00 | 70 | 1027.1 |
| 20260509014612 | 36 | 142 | 0.0 | 0.0 | 0.00 | 0.00 | 0.00 | 70 | 1027.0 |
| 20260509013110 | 35 | 142 | 0.0 | 0.0 | 0.00 | 0.00 | 0.00 | 72 | 1026.9 |
| 20260509011606 | 34 | 142 | 0.0 | 0.0 | 0.00 | 0.00 | 0.00 | 71 | 1026.8 |
| 20260509010051 | 34 | 142 | 0.0 | 0.0 | 0.00 | 0.00 | 0.00 | 72 | 1026.7 |
| 20260509004550 | 35 | 142 | 0.0 | 0.0 | 0.00 | 0.00 | 0.00 | 74 | 1026.7 |
| 20260509003108 | 35 | 142 | 0.0 | 0.0 | 0.00 | 0.00 | 0.00 | 69 | 1026.7 |
| 20260509001545 | 35 | 142 | 0.0 | 0.0 | 0.00 | 0.00 | 0.00 | 66 | 1026.6 |
| 20260509000050 | 36 | 142 | 0.0 | 0.0 | 0.00 | 0.00 | 0.00 | 62 | 1026.7 |
| 20260508234543 | 36 | 142 | 0.0 | 0.0 | 0.00 | 0.00 | 0.00 | 60 | 1026.7 |
| 20260508233039 | 37 | 142 | 0.0 | 0.0 | 0.00 | 0.00 | 0.00 | 60 | 1026.7 |
| 20260508231540 | 38 | 143 | 0.0 | 0.0 | 0.00 | 0.00 | 0.00 | 62 | 1026.8 |
| 20260508230033 | 39 | 142 | 0.0 | 0.0 | 0.00 | 0.00 | 0.00 | 60 | 1026.7 |
| 20260508224528 | 41 | 142 | 0.0 | 0.0 | 0.00 | 0.00 | 0.00 | 61 | 1026.7 |
| 20260508223024 | 42 | 142 | 0.0 | 0.0 | 0.00 | 0.00 | 0.00 | 48 | 1026.7 |
| 20260508221523 | 43 | 142 | 0.0 | 0.0 | 0.00 | 0.00 | 0.00 | 47 | 1026.7 |
| 20260508220022 | 43 | 144 | 0.0 | 0.0 | 0.00 | 0.00 | 0.00 | 45 | 1026.7 |
| 20260508214517 | 44 | 143 | 0.0 | 0.0 | 0.00 | 0.00 | 0.00 | 43 | 1026.7 |
| 20260508213014 | 45 | 142 | 0.0 | 0.0 | 0.00 | 0.00 | 0.00 | 41 | 1026.6 |
| 20260508211511 | 45 | 143 | 0.0 | 0.0 | 0.00 | 0.00 | 0.00 | 42 | 1026.5 |
| 20260508210015 | 45 | 158 | 0.0 | 0.0 | 0.00 | 0.00 | 0.00 | 43 | 1026.4 |
| 20260508204509 | 46 | 152 | 0.0 | 0.0 | 0.00 | 0.00 | 0.00 | 41 | 1026.4 |
| 20260508203007 | 46 | 142 | 0.0 | 0.0 | 0.00 | 0.00 | 0.00 | 42 | 1026.4 |
| 20260508201505 | 46 | 188 | 0.0 | 0.0 | 0.00 | 0.00 | 0.00 | 46 | 1026.4 |
| 20260508200005 | 46 | 121 | 0.0 | 0.0 | 0.00 | 0.00 | 0.00 | 41 | 1026.2 |
| 20260508194502 | 47 | 169 | 0.0 | 0.0 | 0.00 | 0.00 | 0.00 | 40 | 1026.2 |
| 20260508193110 | 48 | 131 | 0.0 | 0.0 | 0.00 | 0.00 | 0.00 | 44 | 1026.1 |
| 20260508191555 | 49 | 113 | 0.0 | 0.0 | 0.00 | 0.00 | 0.00 | 37 | 1026.0 |
| 20260508190058 | 51 | 153 | 0.0 | 0.0 | 0.00 | 0.00 | 0.00 | 36 | 1025.9 |
| 20260508184601 | 52 | 118 | 0.0 | 0.0 | 0.00 | 0.00 | 0.00 | 32 | 1025.9 |
| 20260508183059 | 54 | 141 | 0.0 | 1.0 | 0.00 | 0.00 | 0.00 | 31 | 1025.9 |
| 20260508181544 | 55 | 133 | 0.0 | 0.0 | 0.00 | 0.00 | 0.00 | 30 | 1025.7 |
| 20260508180037 | 56 | 131 | 0.0 | 0.0 | 0.00 | 0.00 | 0.00 | 28 | 1025.7 |
| 20260508174554 | 57 | 143 | 0.0 | 1.0 | 0.00 | 0.00 | 0.00 | 29 | 1025.6 |
| 20260508173034 | 56 | 148 | 0.0 | 2.0 | 0.00 | 0.00 | 0.00 | 29 | 1025.6 |
| 20260508171534 | 57 | 132 | 0.0 | 2.0 | 0.00 | 0.00 | 0.00 | 29 | 1025.6 |
| 20260508170033 | 59 | 158 | 0.0 | 7.0 | 0.00 | 0.00 | 0.00 | 27 | 1025.5 |
| 20260508164524 | 60 | 128 | 0.0 | 0.0 | 0.00 | 0.00 | 0.00 | 27 | 1025.4 |
| 20260508163038 | 60 | 143 | 0.0 | 6.0 | 0.00 | 0.00 | 0.00 | 26 | 1025.4 |
| 20260508161520 | 61 | 169 | 0.0 | 3.0 | 0.00 | 0.00 | 0.00 | 27 | 1025.3 |
| 20260508160024 | 61 | 135 | 0.0 | 4.0 | 0.00 | 0.00 | 0.00 | 27 | 1025.2 |
| 20260508154519 | 62 | 133 | 0.0 | 4.0 | 0.00 | 0.00 | 0.00 | 28 | 1025.2 |
| 20260508153025 | 62 | 134 | 0.0 | 3.0 | 0.00 | 0.00 | 0.00 | 26 | 1025.2 |
| 20260508151524 | 63 | 194 | 0.0 | 4.0 | 0.00 | 0.00 | 0.00 | 28 | 1025.2 |